カタログに戻る

HIMAWARI 5

GMS 5

運用中気象GEO
NORAD 23522·PAYLOAD·🇯🇵 Japan

打ち上げ Mar 18, 1995 から Tanegashima Space Center

Loading…

TLE

最新Source: Space-Track

元期: Sep 13, 2026, 17:18 UTC

1 23522U 95011B   26256.72128163 -.00000297  00000-0  00000-0 0  9990
2 23522  14.3333   3.7738 0007374 169.4631 199.2658  0.99405577114486

AllMySatでHIMAWARI 5をリアルタイム追跡

Download on the App Store